Hourly Data Report for July 17, 2021

DRYDEN REGIONAL
ONTARIO
Current Station Operator: NAVCAN

49°49'39.000" N
92°44'39.000" W
412.70 m
6032125
71527
YHD

Download Data

Hourly Data (July 2021)
Hourly Data Report for July 17, 2021
TIME
LST
Temp Definition
°C
Dew Point Definition
°C
Rel Hum Definition
%
Precip. Amount Definition
mm

Wind Dir Definition
10's deg

Wind Spd Definition
km/h
Visibility Definition
km
Stn Press Definition
kPa
Hmdx Definition


Wind Chill Definition


Weather Definition


00:00 21.2 13.7 62 0.0 20 11 16.1 96.84     LegendNANA
01:00 20.8 14.3 66 0.0 21 9 16.1 96.87     LegendNANA
02:00 19.8 14.0 69 0.0 22 9 16.1 96.90     LegendNANA
03:00 19.6 14.5 72 0.0 24 9 16.1 96.95     LegendNANA
04:00 19.2 14.5 74 0.0 24 8 16.1 97.02     LegendNANA
05:00 18.2 14.6 79 0.0 26 8 16.1 97.05     LegendNANA
06:00 18.9 15.5 80 0.0 25 9 16.1 97.13     LegendNANA
07:00 20.3 15.4 73 0.0 24 8 16.1 97.18 25   LegendNANA
08:00 22.5 15.0 62 0.0 27 13 16.1 97.22 26   LegendNANA
09:00 24.2 15.4 58 0.0 30 11 16.1 97.25 28   LegendNANA
10:00 25.8 15.4 52 0.0 28 11 16.1 97.28 30   LegendNANA
11:00 27.8 14.0 42 0.0 25 15 16.1 97.25 31   LegendNANA
12:00 29.2 13.7 38 0.0 25 15 16.1 97.25 32   LegendNANA
13:00 29.9 14.2 38 0.0 27 17 16.1 97.26 33   LegendNANA
14:00 29.7 13.0 35 0.0 27 13 16.1 97.27 32   LegendNANA
15:00 30.1 13.2 35 0.0 26 9 16.1 97.24 33   LegendNANA
16:00 30.5 12.0 32 0.0 22 11 16.1 97.22 33   LegendNANA
17:00 30.0 12.2 33 0.0 26 13 16.1 97.21 32   LegendNANA
18:00 29.6 12.8 35 0.0 24 9 16.1 97.22 32   LegendNANA
19:00 28.4 13.7 40 0.0 24 5 16.1 97.22 32   LegendNANA
20:00 26.2 14.8 49 0.0 28 8 16.1 97.27 30   LegendNANA
21:00 25.2 13.0 46 0.0 32 8 16.1 97.33 28   LegendNANA
22:00 24.7 12.5 46 0.0 31 9 16.1 97.36 27   LegendNANA
23:00 21.9 14.6 63 0.0 8 4 16.1 97.35 26   LegendNANA

Notes on Data Quality.

Legend

  • E = Estimated
  • M = Missing
  • NA = Not Available*
  • [empty] = Indicates an unobserved value
Date modified: